This is the latest recevied weather packets stored in our database for station/object KW4UJ. If no packets are shown the sender has not sent any weather packets the latest 10 day(s).
| Time | Temp. | Humidity | Pressure | Rain* | Wind** | Luminosity | Snow |
|---|---|---|---|---|---|---|---|
| 1788614185 | 25° C | 84% | 1012.2 hPa | 0 mm | - | 227 W/m² | - |
| 1788613881 | 25° C | 84% | 1012.2 hPa | 0 mm | - | 105 W/m² | - |
| 1788613581 | 25° C | 84% | 1012.1 hPa | 0 mm | - | 170 W/m² | - |
| 1788613275 | 24.44° C | 87% | 1012 hPa | 0 mm | - | 121 W/m² | - |
| 1788612975 | 23.89° C | 88% | 1012 hPa | 0 mm | - | 68 W/m² | - |
| 1788612671 | 24.44° C | 88% | 1012.1 hPa | 0 mm | - | 83 W/m² | - |
| 1788612367 | 23.89° C | 88% | 1012.1 hPa | 0 mm | - | 95 W/m² | - |
| 1788612063 | 23.89° C | 88% | 1012 hPa | 0 mm | - | 90 W/m² | - |
| 1788611758 | 23.89° C | 88% | 1012 hPa | 0 mm | - | 75 W/m² | - |
| 1788611455 | 23.89° C | 88% | 1012 hPa | 0 mm | - | 66 W/m² | - |
| 1788611155 | 23.89° C | 89% | 1012.1 hPa | 0 mm | - | 81 W/m² | - |
| 1788610855 | 23.33° C | 90% | 1011.9 hPa | 0 mm | - | 94 W/m² | - |
| 1788610549 | 23.33° C | 90% | 1012 hPa | 0 mm | - | 102 W/m² | - |
| 1788610245 | 23.33° C | 89% | 1012.2 hPa | 0 mm | - | 87 W/m² | - |
| 1788609944 | 23.33° C | 90% | 1012 hPa | 0 mm | - | 79 W/m² | - |
| 1788609639 | 22.78° C | 91% | 1012 hPa | 0 mm | - | 70 W/m² | - |
| 1788609338 | 22.78° C | 91% | 1011.8 hPa | 0 mm | - | 56 W/m² | - |
| 1788609033 | 22.78° C | 92% | 1011.7 hPa | 0 mm | - | 50 W/m² | - |
| 1788608732 | 22.78° C | 92% | 1011.8 hPa | 0 mm | - | 44 W/m² | - |
| 1788608432 | 22.22° C | 93% | 1011.7 hPa | 0 mm | - | 52 W/m² | - |
| 1788608127 | 22.22° C | 93% | 1011.7 hPa | 0 mm | - | 38 W/m² | - |
| 1788607822 | 21.67° C | 93% | 1011.8 hPa | 0 mm | - | 31 W/m² | - |
| 1788607517 | 22.22° C | 93% | 1011.9 hPa | 0 mm | - | 23 W/m² | - |
| 1788607213 | 21.67° C | 93% | 1011.7 hPa | 0 mm | - | 22 W/m² | - |
| 1788606907 | 22.22° C | 93% | 1011.8 hPa | 0 mm | - | 19 W/m² | - |
* Rain latest hour (hover to see other rain measurements)
** Current wind speed in m/s (hover to see current wind gust speed)